TimeEST,TemperatureF,Dew PointF,Humidity,Sea Level PressureIn,VisibilityMPH,Wind Direction,Wind SpeedMPH,Gust SpeedMPH,PrecipitationIn,Events,Conditions,WindDirDegrees,DateUTC
12:45 AM,45.0,42.1,90,30.13,7.0,Calm,Calm,-,0.01,Rain,Light Rain,0,2014-01-02 05:45:00
12:54 AM,45.0,42.1,90,30.12,8.0,Calm,Calm,-,0.01,Rain,Light Rain,0,2014-01-02 05:54:00
1:54 AM,45.0,43.0,93,30.12,6.0,Calm,Calm,-,0.02,Rain,Light Rain,0,2014-01-02 06:54:00
2:54 AM,45.0,43.0,93,30.12,4.0,Calm,Calm,-,0.02,Rain,Light Rain,0,2014-01-02 07:54:00
3:54 AM,45.0,43.0,93,30.09,5.0,Calm,Calm,-,0.03,Rain,Light Rain,0,2014-01-02 08:54:00
4:08 AM,45.0,44.1,97,30.08,5.0,Calm,Calm,-,0.00,,Overcast,0,2014-01-02 09:08:00
4:54 AM,45.0,44.1,97,30.04,5.0,Calm,Calm,-,0.00,,Overcast,0,2014-01-02 09:54:00
5:08 AM,45.0,44.1,97,30.03,4.0,SSE,3.5,-,N/A,,Overcast,150,2014-01-02 10:08:00
5:54 AM,45.0,44.1,97,30.02,4.0,SSE,3.5,-,N/A,,Overcast,160,2014-01-02 10:54:00
6:54 AM,45.0,44.1,97,30.00,5.0,Calm,Calm,-,0.01,,Overcast,0,2014-01-02 11:54:00
7:12 AM,45.0,44.1,97,30.00,4.0,NW,4.6,-,N/A,,Overcast,320,2014-01-02 12:12:00
7:54 AM,45.0,44.1,97,29.98,4.0,Calm,Calm,-,0.00,Rain,Light Rain,0,2014-01-02 12:54:00
8:31 AM,45.0,44.1,97,29.96,2.5,SE,3.5,-,0.01,,Overcast,140,2014-01-02 13:31:00
8:49 AM,46.4,44.6,93,29.96,2.5,Calm,Calm,-,0.01,,Overcast,0,2014-01-02 13:49:00
8:54 AM,46.0,45.0,96,29.96,3.0,Calm,Calm,-,0.01,Rain,Light Rain,0,2014-01-02 13:54:00
9:02 AM,46.0,45.0,96,29.96,3.0,Calm,Calm,-,0.00,Rain,Light Rain,0,2014-01-02 14:02:00
9:54 AM,46.0,45.0,96,29.95,2.5,NNW,3.5,-,0.01,Rain,Light Rain,340,2014-01-02 14:54:00
10:01 AM,46.0,45.0,96,29.94,3.0,Calm,Calm,-,0.00,Rain,Light Rain,0,2014-01-02 15:01:00
10:54 AM,46.9,45.0,93,29.92,2.5,North,3.5,-,0.01,Rain,Light Rain,10,2014-01-02 15:54:00
11:05 AM,46.9,45.0,93,29.90,3.0,Calm,Calm,-,0.00,Rain,Light Rain,0,2014-01-02 16:05:00
11:26 AM,46.9,46.0,97,29.89,3.0,Calm,Calm,-,0.01,Rain,Light Rain,0,2014-01-02 16:26:00
11:36 AM,46.9,46.0,97,29.88,3.0,Calm,Calm,-,0.02,Rain,Light Rain,0,2014-01-02 16:36:00
11:49 AM,46.4,46.4,100,29.87,2.5,Calm,Calm,-,0.02,Rain,Light Rain,0,2014-01-02 16:49:00
11:54 AM,46.9,46.0,97,29.87,2.5,Calm,Calm,-,0.03,Rain,Light Rain,0,2014-01-02 16:54:00
12:54 PM,48.0,46.9,96,29.81,2.5,SE,4.6,-,0.06,Rain,Light Rain,140,2014-01-02 17:54:00
1:26 PM,48.0,46.9,96,29.78,3.0,SE,3.5,-,0.03,Rain,Light Rain,130,2014-01-02 18:26:00
1:54 PM,48.0,46.9,96,29.77,8.0,SSE,3.5,-,0.03,,Overcast,150,2014-01-02 18:54:00
2:35 PM,48.9,46.9,93,29.75,1.8,SSE,4.6,-,0.01,Rain,Light Rain,160,2014-01-02 19:35:00
2:39 PM,48.9,46.9,93,29.75,1.0,SSE,3.5,-,0.02,Rain,Rain,160,2014-01-02 19:39:00
2:54 PM,48.9,48.0,97,29.74,1.2,SSE,4.6,-,0.04,Rain,Light Rain,160,2014-01-02 19:54:00
3:05 PM,48.9,48.0,97,29.73,1.8,SSE,4.6,-,0.01,Rain,Light Rain,160,2014-01-02 20:05:00
3:12 PM,48.9,48.0,97,29.73,1.2,SSE,4.6,-,0.02,Rain,Light Rain,160,2014-01-02 20:12:00
3:19 PM,48.9,46.9,93,29.72,2.0,SSE,5.8,-,0.02,Rain,Light Rain,160,2014-01-02 20:19:00
3:29 PM,48.9,48.0,97,29.72,4.0,SSE,4.6,-,0.02,Rain,Light Rain,160,2014-01-02 20:29:00
3:54 PM,48.9,48.0,97,29.71,6.0,South,3.5,-,0.02,,Overcast,170,2014-01-02 20:54:00
4:14 PM,48.9,48.0,97,29.70,2.5,South,3.5,-,N/A,,Overcast,190,2014-01-02 21:14:00
4:21 PM,48.9,48.0,97,29.69,4.0,Calm,Calm,-,0.01,Rain,Light Rain,0,2014-01-02 21:21:00
4:48 PM,50.0,48.2,94,29.68,1.8,Calm,Calm,-,0.01,Rain,Light Rain,0,2014-01-02 21:48:00
4:54 PM,50.0,48.9,96,29.68,1.2,Calm,Calm,-,0.01,Rain,Light Rain,0,2014-01-02 21:54:00
5:16 PM,50.0,48.0,93,29.67,2.0,South,3.5,-,0.01,Rain,Light Rain,190,2014-01-02 22:16:00
5:28 PM,50.0,48.9,96,29.65,1.5,South,3.5,-,0.02,Rain,Light Rain,190,2014-01-02 22:28:00
5:50 PM,50.0,48.2,94,29.65,1.8,SSW,4.6,-,0.04,Rain,Light Rain,210,2014-01-02 22:50:00
5:54 PM,50.0,48.0,93,29.65,2.0,SW,3.5,-,0.05,Rain,Light Rain,230,2014-01-02 22:54:00
6:02 PM,50.0,48.0,93,29.64,1.8,SW,3.5,-,0.01,Rain,Light Rain,220,2014-01-02 23:02:00
6:09 PM,50.0,48.0,93,29.64,2.0,SSE,4.6,-,0.01,Rain,Light Rain,160,2014-01-02 23:09:00
6:24 PM,50.0,48.9,96,29.65,1.5,WSW,4.6,-,0.03,Rain,Rain,240,2014-01-02 23:24:00
6:45 PM,50.0,48.9,96,29.65,1.8,West,6.9,-,0.09,Rain,Rain,270,2014-01-02 23:45:00
6:54 PM,50.0,48.9,96,29.65,1.8,West,8.1,-,0.11,Rain,Rain,280,2014-01-02 23:54:00
7:02 PM,50.0,48.9,96,29.65,2.0,West,9.2,-,0.02,Rain,Rain,280,2014-01-03 00:02:00
7:15 PM,50.0,48.9,96,29.65,1.8,WSW,8.1,-,0.04,Rain,Rain,250,2014-01-03 00:15:00
7:23 PM,50.0,48.9,96,29.64,3.0,West,6.9,-,0.05,Rain,Light Rain,260,2014-01-03 00:23:00
7:42 PM,50.0,48.9,96,29.63,6.0,West,6.9,-,0.05,Rain,Light Rain,260,2014-01-03 00:42:00
7:52 PM,50.0,48.2,94,29.63,5.0,WSW,8.1,-,0.06,Rain,Light Rain,250,2014-01-03 00:52:00
7:54 PM,50.0,48.9,96,29.62,5.0,WSW,8.1,-,0.06,Rain,Light Rain,250,2014-01-03 00:54:00
8:35 PM,51.1,48.9,92,29.63,5.0,WSW,9.2,-,0.02,Rain,Rain,250,2014-01-03 01:35:00
8:54 PM,51.1,48.9,92,29.62,5.0,WSW,9.2,-,0.04,Rain,Light Rain,240,2014-01-03 01:54:00
9:12 PM,51.1,48.9,92,29.63,10.0,West,11.5,-,0.00,,Overcast,260,2014-01-03 02:12:00
9:24 PM,51.1,48.9,92,29.62,10.0,West,13.8,-,0.00,,Overcast,260,2014-01-03 02:24:00
9:54 PM,51.1,48.9,92,29.63,4.0,West,12.7,-,0.00,Rain,Light Rain,260,2014-01-03 02:54:00
10:09 PM,51.1,48.9,92,29.64,2.5,West,15.0,23.0,0.01,Rain,Light Rain,280,2014-01-03 03:09:00
10:20 PM,51.1,48.9,92,29.64,7.0,West,13.8,-,0.01,,Overcast,280,2014-01-03 03:20:00
10:43 PM,50.0,48.0,93,29.65,10.0,WNW,12.7,-,0.01,,Overcast,290,2014-01-03 03:43:00
10:54 PM,50.0,46.9,89,29.65,10.0,WNW,13.8,21.9,0.01,,Overcast,290,2014-01-03 03:54:00
11:04 PM,50.0,46.9,89,29.65,10.0,West,16.1,-,N/A,,Overcast,280,2014-01-03 04:04:00
11:15 PM,50.0,46.0,86,29.65,10.0,WNW,13.8,-,N/A,,Mostly Cloudy,290,2014-01-03 04:15:00
11:54 PM,48.0,43.0,83,29.68,10.0,WNW,13.8,25.3,N/A,,Mostly Cloudy,290,2014-01-03 04:54:00